Powrót do katalogu

HARBINGER

AktywnyNaukaSSO
NORAD 68440·PAYLOAD·🇺🇸 United States
Ta nazwa satelity nie została jeszcze potwierdzona przez oficjalne źródła.

Wystrzelony Mar 30, 2026 z Vandenberg Space Force Base

Loading…

Następne Przeloty (najbliższe 24 godziny)

TLE

ŚwieżeSource: Space-Track

Epoka: Sep 14, 2026, 07:33 UTC

1 68440U 26067AA  26257.31516055  .00014722  00000-0  61804-3 0  9999
2 68440  97.4588 215.0516 0004826  99.4598 260.7185 15.23553049 25507

Śledź HARBINGER w czasie rzeczywistym z AllMySat

Download on the App Store